Hourly Data Report for October 02, 2017

All times are specified in Local Standard Time (LST). Add 1 hour to adjust for Daylight Saving Time where and when it is observed.

HALL BEACH A
NUNAVUT

68°46'33.000" N
81°14'33.000" W
9.10 m
2402354
71293
YUX

Related Data

No related data is available for this station

Download Data

Hourly Data (October 2017)
Hourly Data Report for October 2, 2017
Temp Definition
°C
Dew Point Temp Definition
°C
Rel Hum Definition
%
Wind Dir Definition
10's deg

Wind Spd Definition
km/h
Visibility Definition
km
Stn Press Definition
kPa
Hmdx Definition


Wind Chill Definition


Weather Definition


TIME
00:00 Legend Double Dagger -3.5 -5.1 89 21 9 16.1 101.35   -7 LegendNANA
01:00 Legend Double Dagger -2.9 -4.4 90 19 11 16.1 101.26   -7 LegendNANA
02:00 Legend Double Dagger -2.0 -4.7 82 21 18 16.1 101.12   -7 LegendNANA
03:00 Legend Double Dagger -3.3 -4.1 94 24 21 1.6 101.07   -10 Snow
04:00 Legend Double Dagger -3.2 -3.9 95 21 11 3.2 100.93   -7 Snow
05:00 Legend Double Dagger -1.9 -2.5 96 20 22 3.2 100.78   -8 Snow
06:00 Legend Double Dagger -1.2 -1.8 96 21 24 4.0 100.65   -7 Snow
07:00 Legend Double Dagger -0.8 -1.4 96 21 26 6.4 100.53   -7 Snow
08:00 Legend Double Dagger -0.4 -1.3 94 20 22 16.1 100.43   -6 Snow
09:00 Legend Double Dagger -0.2 -1.1 94 20 21 16.1 100.29   -6 Snow
10:00 Legend Double Dagger 0.1 -0.6 95 20 17 16.1 100.18     Snow
11:00 Legend Double Dagger 0.2 -0.4 96 20 17 16.1 100.08     Rain
12:00 Legend Double Dagger 0.3 -0.1 97 22 17 4.8 100.01     Snow
13:00 Legend Double Dagger 0.2 -0.2 97 22 13 3.6 99.91     Snow
14:00 Legend Double Dagger 0.0 -0.4 97 22 11 4.8 99.83   -4 Snow
15:00 Legend Double Dagger -0.2 -0.5 98 23 13 2.0 99.73   -4 Fog
16:00 Legend Double Dagger -0.1 -0.4 98 24 13 12.9 99.64   -4 LegendNANA
17:00 Legend Double Dagger -0.6 -0.9 98 26 18 16.1 99.59   -6 LegendNANA
18:00 Legend Double Dagger -1.4 -2.7 91 29 24 16.1 99.55   -8 LegendNANA
19:00 Legend Double Dagger -2.5 -3.8 91 28 17 16.1 99.47   -8 LegendNANA
20:00 Legend Double Dagger -3.3 -4.6 91 28 22 16.1 99.40   -10 LegendNANA
21:00 Legend Double Dagger -3.1 -4.3 91 28 22 16.1 99.33   -9 LegendNANA
22:00 Legend Double Dagger -5.1 -6.4 91 28 24 16.1 99.23   -12 LegendNANA
23:00 Legend Double Dagger -5.4 -6.6 91 27 26 16.1 99.17   -13 LegendNANA

Notes on Data Quality.

Legend

  • E = Estimated
  • M = Missing
  • NA = Not Available
  • ‡ = Partner data that is not subject to review by the National Climate Archives
Date modified: